Kuchera_Ratio
6.7 5.9 6.9 7.1 7.8 8.7 9.3 7.1 14.5 9.7 10.7 3.5 3.4 2.7 1.7 8.8 11.6 12.1 13.1 13.6 13.7 13.1 13.0 12.7 13.1 13.3 12.8 13.1 13.4 13.6 13.4 12.9 13.1 14.4 14.5 14.0 14.1 13.5 12.9 12.6 11.9 9.3 8.7 8.5
8.8 7.5 8.6 10.3 10.4 10.2 9.9 9.9 12.3 12.8 12.3 3.9 4.1 6.0 6.4 9.8 11.8 13.1 13.3 13.7 13.6 13.5 13.2 13.3 13.2 13.4 12.7 13.3 13.5 13.5 13.3 13.4 13.6 13.8 13.9 13.8 13.8 13.7 13.5 13.2 12.9 12.9 12.2 11.3
16.0 11.1 11.1 15.0 9.4 7.3 10.6 9.5 8.4 13.3 5.9 4.8 5.6 7.8 8.9 12.7 13.5 13.5 13.4 13.8 13.7 13.9 13.6 13.7 13.8 12.9 13.6 13.7 13.5 13.5 13.5 13.2 13.2 13.5 13.6 13.5 13.5 13.2 12.8 12.4 12.3 11.9 12.3 12.1
15.0 13.4 18.9 8.9 3.6 4.1 8.4 6.9 6.3 6.1 6.4 8.2 7.8 10.8 13.0 13.1 13.5 13.2 13.5 13.6 13.8 14.0 13.9 13.8 13.9 13.8 12.9 13.3 13.7 13.6 13.2 13.1 13.2 13.7 13.8 14.1 13.6 13.3 13.0 12.7 12.2 12.0 11.4 11.7
15.6 16.1 12.6 9.7 5.7 9.1 12.3 8.7 3.3 7.1 10.3 11.6 12.3 13.1 14.1 12.4 12.7 14.0 14.2 14.1 14.1 14.3 14.0 13.9 14.4 13.8 13.9 14.5 14.1 13.7 13.2 13.0 13.5 13.9 14.0 13.8 13.6 13.6 13.3 13.2 12.9 12.9 12.9 12.7
14.3 17.4 19.5 10.0 5.1 0.5 1.8 13.4 4.1 6.7 8.8 10.5 12.8 14.0 13.4 13.7 14.0 14.4 14.2 14.2 14.5 14.4 14.1 14.2 14.5 14.5 15.0 14.6 14.3 13.5 13.5 13.7 14.1 14.5 14.5 14.2 14.0 13.8 13.7 13.4 13.2 13.3 13.2 12.9
14.5 15.3 13.4 3.1 1.5 0.1 15.8 12.1 3.2 5.5 8.1 9.7 12.5 12.0 11.9 13.4 14.4 14.5 14.3 14.5 14.6 14.5 14.4 14.5 14.5 14.8 15.1 14.7 13.8 14.0 14.5 14.6 14.8 15.0 14.8 15.0 15.1 14.7 14.6 14.3 14.2 13.8 13.6 13.1
13.5 15.0 16.7 1.6 3.0 11.1 5.2 4.3 4.8 6.3 8.8 10.6 12.3 12.4 12.1 13.2 14.2 13.6 13.6 14.2 14.5 14.7 14.9 14.9 14.6 15.2 15.4 14.6 14.1 14.8 15.0 14.8 14.8 15.0 15.1 15.1 14.9 15.0 14.8 14.7 14.6 14.4 14.4 14.1
9.7 12.1 2.6 0.6 1.1 0.0 1.8 1.8 4.9 5.9 7.8 10.5 11.8 12.5 12.4 13.1 14.2 13.8 14.2 14.4 14.8 14.9 15.1 15.1 15.0 15.2 15.4 14.4 14.6 15.1 15.1 14.7 14.6 15.3 15.4 15.2 14.6 14.6 14.7 14.6 14.5 14.5 14.4 14.4
7.3 3.7 3.0 1.6 2.7 2.8 3.1 2.8 2.0 3.4 5.5 9.6 11.0 12.4 12.7 13.3 13.8 14.0 14.6 15.1 15.2 15.1 15.4 15.4 15.2 15.3 15.7 15.1 15.2 15.5 15.5 15.1 15.3 15.5 15.6 15.6 15.6 15.3 15.4 15.3 15.3 15.2 15.2 15.6
8.7 5.0 4.8 2.2 2.3 1.9 3.7 4.2 4.0 5.1 6.1 7.3 11.1 12.5 12.7 13.1 13.5 13.8 14.5 15.1 15.5 15.6 15.7 15.5 15.5 15.8 16.0 15.7 15.8 16.2 15.9 15.6 15.6 15.6 15.6 15.7 15.7 15.6 15.7 15.6 15.8 16.1 16.3 16.7
11.9 2.4 1.7 3.7 1.1 2.7 4.3 5.0 4.9 5.4 8.9 10.6 11.1 10.9 12.8 13.5 13.9 14.1 14.7 15.0 15.4 15.7 16.1 15.9 15.7 16.1 15.3 14.4 14.9 16.3 16.1 16.2 16.3 16.6 16.5 16.7 16.9 16.8 14.9 13.7 13.3 13.1 13.2 16.2
2.0 1.9 3.7 4.6 2.7 3.6 6.7 7.1 7.0 8.0 8.3 8.2 12.3 12.3 12.9 13.5 13.4 13.5 14.3 14.8 15.3 15.4 15.6 16.1 16.3 16.6 15.6 14.4 14.1 15.4 17.1 16.6 16.9 17.1 17.1 17.4 17.6 17.7 18.2 18.6 15.4 14.6 14.4 13.8
4.6 4.9 6.5 5.0 4.8 6.3 8.6 9.1 9.1 10.5 11.8 11.1 11.7 11.1 11.5 12.6 12.7 13.7 14.7 14.6 14.8 15.4 16.1 16.4 16.5 16.8 17.0 15.7 16.2 17.6 17.4 17.1 17.4 17.5 17.9 18.2 18.5 18.9 19.2 19.7 20.0 20.2 19.7 16.6
7.2 7.6 7.0 7.5 8.1 9.7 11.6 11.6 12.1 12.7 12.7 12.4 11.1 11.5 11.9 13.3 14.4 15.0 14.7 14.1 14.6 16.6 17.0 16.9 17.0 17.0 17.2 15.2 15.9 17.5 17.9 18.1 18.2 18.4 18.7 19.1 19.4 20.0 20.4 20.7 20.9 21.1 21.5 21.6
8.7 9.9 10.2 10.6 11.0 12.1 12.9 13.0 13.2 13.6 12.6 12.5 13.2 13.3 12.7 13.9 15.3 15.6 15.5 16.3 17.1 16.8 17.2 17.2 17.2 17.5 17.4 16.9 17.1 17.6 18.1 18.6 18.5 18.9 19.5 19.8 20.4 20.7 20.9 21.4 21.6 22.0 22.3 22.7
9.9 11.7 12.3 12.5 12.8 13.2 12.4 12.6 12.5 12.7 12.9 13.4 13.9 14.2 15.3 15.6 16.4 17.1 17.3 17.4 17.4 17.9 18.0 17.8 17.8 17.5 17.3 17.2 17.2 17.7 18.3 18.8 19.3 19.9 20.3 20.7 20.9 21.2 21.6 22.2 22.7 22.9 23.2 23.6
6.4 6.7 8.3 9.2 11.6 10.3 11.9 11.7 12.3 12.6 13.7 13.9 15.4 16.0 17.0 17.0 16.5 17.2 17.7 18.0 17.8 17.8 18.2 18.3 18.0 17.7 17.5 17.5 17.6 18.2 18.6 19.3 20.0 20.8 21.1 21.3 21.5 21.9 22.4 23.0 23.3 23.6 24.1 24.6
7.0 7.4 8.9 9.3 7.5 8.5 10.3 12.2 12.9 13.2 15.0 15.6 16.3 17.0 16.7 16.7 16.0 17.1 17.6 18.0 18.0 18.0 18.2 18.6 18.2 18.0 17.8 17.9 18.1 18.5 19.1 19.9 21.0 21.4 21.6 21.9 22.1 22.6 23.3 23.7 24.1 24.3 24.7 25.3
8.2 8.6 9.9 10.5 9.7 10.1 13.5 13.7 14.1 15.1 15.3 15.7 16.5 17.3 18.3 17.3 16.7 17.5 17.8 17.9 17.9 18.2 18.9 18.8 18.3 17.9 18.4 17.7 18.7 19.0 19.7 20.5 21.5 22.0 22.1 22.5 22.9 23.5 24.1 24.6 24.9 25.1 25.5 26.2
8.4 9.9 12.0 9.7 12.1 12.6 13.1 13.9 14.7 15.8 16.0 16.2 16.3 17.2 17.0 17.1 17.5 17.6 18.2 18.6 19.0 18.5 17.8 18.7 17.8 18.4 18.5 19.2 19.5 19.9 20.7 21.5 22.2 22.5 22.7 23.2 23.9 24.5 25.0 25.2 25.5 25.7 26.2 26.9
10.9 12.0 10.5 13.0 13.3 14.0 14.3 14.4 14.7 15.6 16.2 16.6 16.8 17.1 17.2 18.1 18.0 18.6 18.7 18.2 17.8 18.8 18.0 17.9 18.2 18.8 19.3 19.9 20.4 21.1 22.1 22.4 22.7 22.9 23.5 24.0 24.6 25.2 25.7 25.9 26.0 26.3 27.1 27.8
11.9 12.5 13.4 13.8 14.2 14.5 15.1 15.2 15.2 15.3 16.0 16.3 16.4 17.0 17.5 16.9 17.8 18.1 18.8 17.1 17.2 18.3 17.6 18.8 19.0 19.4 20.1 20.5 21.4 22.2 22.7 23.0 23.1 23.7 24.1 24.7 25.5 26.1 26.2 26.2 26.5 27.2 28.0 28.6
13.6 13.9 14.4 14.7 14.9 15.3 15.2 15.4 16.0 16.0 16.0 16.3 16.6 16.9 17.4 18.4 18.3 16.0 16.3 17.8 18.2 17.8 18.7 19.3 19.8 20.2 20.7 21.5 22.4 23.0 23.3 23.5 24.0 24.4 24.9 25.7 26.3 26.3 26.5 26.9 27.6 28.2 28.7 29.3
14.1 14.6 14.7 14.9 15.1 15.5 15.8 15.9 16.4 16.5 16.5 16.6 16.8 16.6 15.9 15.7 17.3 17.6 17.1 17.9 18.3 18.8 19.8 20.2 20.6 21.3 21.8 22.6 23.5 23.9 24.1 24.4 24.8 25.5 26.1 26.3 26.6 26.8 27.2 27.8 28.4 28.9 29.4 29.9
14.8 15.0 15.3 15.3 15.6 15.9 16.1 15.8 16.7 16.7 16.8 18.1 17.8 17.3 17.6 17.4 16.9 17.7 18.3 18.8 19.2 19.6 20.4 21.5 21.8 22.2 22.7 23.7 24.5 24.7 24.9 25.3 26.0 26.4 26.7 26.9 27.0 27.4 28.1 28.8 29.3 29.8 30.3 30.6
15.2 15.4 15.6 15.8 15.6 15.8 15.9 16.0 16.9 17.4 17.1 17.6 18.3 17.7 18.1 18.3 18.5 18.4 18.8 19.4 19.8 20.5 21.1 22.0 22.4 22.9 23.8 24.6 25.2 25.4 25.8 26.2 26.6 27.0 27.0 27.1 27.7 28.4 28.9 29.6 30.2 30.5 30.6 30.9